Regional Weather Roundup
Issued by NWS Charleston, WV

Home | Current Version | Previous Version | Graphics & Text | Print | Product List | Glossary On
Versions: 1 2 3 4 5 6 7 8 9 10 11 12 13 14 15 16 17 18 19 20 21 22 23 24 25 26 27 28 29 30 31 32 33 34 35 36 37 38 39 40 41 42 43 44 45 46 47 48 49 50
000
ASUS41 KRLX 270210
RWRRLX
West Virginia Regional Weather Roundup
National Weather Service Charleston WV
Issued by National Weather Service Pittsburgh PA
1000 PM EDT FRI AUG 26 2016

Note: "fair" indicates few or no clouds below 12,000 feet with no
significant weather and/or obstructions to visibility.

WVZ003-270300-
Northern Panhandle of West Virginia

CITY           SKY/WX    TMP DP  RH WIND       PRES   REMARKS
WHEELING       CLEAR     78  63  59 N3        30.17R HX  80
$$

WVZ009-270300-
Northwest West Virginia

CITY           SKY/WX    TMP DP  RH WIND       PRES   REMARKS
PARKERSBURG    CLEAR     77  72  84 CALM      30.17R
$$

WVZ006-270300-
Western West Virginia

CITY           SKY/WX    TMP DP  RH WIND       PRES   REMARKS
HUNTINGTON     CLEAR     80  75  84 CALM      30.13R HX  85
$$

WVZ015-270300-
West Central West Virginia

CITY           SKY/WX    TMP DP  RH WIND       PRES   REMARKS
CHARLESTON     PTCLDY    78  74  87 CALM      30.14R HX  81
$$

WVZ031-270300-
North Central West Virginia

CITY           SKY/WX    TMP DP  RH WIND       PRES   REMARKS
CLARKSBURG     CLEAR     76  71  85 CALM      30.16R
MORGANTOWN     CLEAR     78  70  76 CALM      30.17R HX  80
$$

WVZ035-042-270300-
South Central West Virginia

CITY           SKY/WX    TMP DP  RH WIND       PRES   REMARKS
BECKLEY        CLEAR     73  68  84 CALM      30.24R
BLUEFIELD      CLEAR     73  65  75 W5        30.26R
$$

WVZ045-270300-
Greenbrier Valley of West Virginia

CITY           SKY/WX    TMP DP  RH WIND       PRES   REMARKS
LEWISBURG      CLEAR     71  68  89 CALM      30.23R
$$

WVZ047-270300-
Northern Mountains of West Virginia

CITY           SKY/WX    TMP DP  RH WIND       PRES   REMARKS
ELKINS         CLEAR     71  66  84 CALM      30.22R
$$

WVZ052-270300-
Eastern Panhandle of West Virginia

CITY           SKY/WX    TMP DP  RH WIND       PRES   REMARKS
MARTINSBURG    CLEAR     82  64  54 N6        30.10R HX  83
PETERSBURG     CLEAR     76  71  85 NW3       30.14R
$$




USA.gov is the U.S. government's official web portal to all federal, state and local government web resources and services.